Flag for Montenegro Weather past 2 weeks in Podgorica, Montenegro

Now
57 °F

Scattered clouds.


Feels Like: 55 °F
Forecast: 45 / 62 °F
Wind: 9 mph from Southeast

Location: Podgorica Titograd

Current Time: Mar 2, 2015 at 1:43:16 PM

Latest Report: Mar 2, 2015 at 1:00 PM


Visibility: N/A

Pressure: 30.04 "Hg

Humidity: 67%

Dew point: 46 °F

Location of PodgoricaLocation

Historic Weather in Podgorica — Graph

°F

Podgorica temperature yesterday

Maximum temperature yesterday: 59 °F (at 12:00 PM)
Minimum temperature yesterday: 45 °F (at 2:00 AM)
Average temperature yesterday: 50 °F

Past Weeks' High & Low Weather Summary

 TemperatureHumidityPressure
High63 °F (Feb 25, 12:30 PM)100% (Feb 21, 11:00 PM)30.54 "Hg (Feb 21, 11:00 PM)
Low30 °F (Feb 19, 7:00 AM)13% (Feb 18, 4:00 PM)29.56 "Hg (Feb 25, 1:30 AM)
Average47 °F69%30.00 "Hg
* Reported Feb 15 12:00 Noon — Mar 2 12:30 PM, Podgorica, Weather by CustomWeather, © 2015

Note: Actual official high and low records may vary slightly from our data, if they occured in-between our weather recording intervals... More about our weather records

Advertising

Podgorica weather history for previous 24 hours

 ConditionsComfort  
Time TempWeatherWind HumidityBarometerVisibility
12:30 PM
Mon, Mar 2
57 °FScattered clouds.8 mph67%30.07 "HgN/A
12:00 PM57 °FPassing clouds.6 mph67%30.07 "HgN/A
11:30 AM54 °FScattered clouds.3 mph77%30.07 "HgN/A
11:00 AM54 °FScattered clouds.6 mph77%30.09 "HgN/A
10:30 AM54 °FBroken clouds.5 mph82%30.09 "HgN/A
10:00 AM52 °FMore clouds than sun.3 mph82%30.09 "HgN/A
9:30 AM50 °FBroken clouds.1 mph94%30.12 "HgN/A
9:00 AM50 °FMostly cloudy.2 mph88%30.12 "HgN/A
8:30 AM48 °FBroken clouds.No wind94%30.09 "HgN/A
8:00 AM46 °FBroken clouds.1 mph93%30.09 "HgN/A
7:30 AM46 °FBroken clouds.1 mph93%30.09 "HgN/A
7:00 AM46 °FBroken clouds.2 mph93%30.09 "HgN/A
6:30 AM45 °FBroken clouds.3 mph100%30.09 "HgN/A
6:00 AM45 °FPartly cloudy.2 mph100%30.09 "HgN/A
5:30 AM43 °FPassing clouds.1 mph100%30.07 "Hg4 mi
5:00 AM43 °FPassing clouds.2 mph100%30.07 "Hg4 mi
4:30 AM43 °FPassing clouds.3 mph100%30.07 "Hg4 mi
4:00 AM43 °FPassing clouds.3 mph100%30.07 "Hg4 mi
3:30 AM43 °FPassing clouds.5 mph100%30.07 "Hg4 mi
3:00 AM43 °FPassing clouds.2 mph100%30.07 "Hg4 mi
2:30 AM45 °FPassing clouds.3 mph93%30.07 "Hg4 mi
2:00 AM45 °FPassing clouds.5 mph100%30.09 "Hg4 mi
1:30 AM45 °FPassing clouds.5 mph100%30.09 "Hg4 mi
1:00 AM45 °FPassing clouds.5 mph100%30.09 "Hg4 mi
12:30 AM45 °FPassing clouds.3 mph100%30.09 "Hg4 mi
12:00 AM45 °FPassing clouds.6 mph100%30.09 "Hg4 mi
11:30 PM
Sun, Mar 1
45 °FPassing clouds.5 mph100%30.07 "Hg4 mi
11:00 PM46 °FPassing clouds.3 mph93%30.07 "Hg4 mi
10:30 PM46 °FPassing clouds.1 mph100%30.07 "Hg4 mi
10:00 PM46 °FPassing clouds.1 mph100%30.07 "Hg4 mi
9:30 PM46 °FPassing clouds.1 mph100%30.07 "Hg4 mi
8:30 PM48 °FPassing clouds.1 mph100%30.07 "Hg4 mi
8:00 PM48 °FPassing clouds.2 mph94%30.04 "HgN/A
7:30 PM48 °FPassing clouds.2 mph94%30.04 "HgN/A
7:00 PM50 °FPassing clouds.1 mph94%30.04 "HgN/A
6:30 PM52 °FPassing clouds.1 mph88%30.04 "HgN/A
6:00 PM52 °FPassing clouds.1 mph88%30.04 "HgN/A
5:30 PM54 °FBroken clouds.2 mph82%30.01 "HgN/A
5:00 PM55 °FBroken clouds.2 mph67%30.01 "HgN/A
4:30 PM55 °FBroken clouds.2 mph67%30.01 "HgN/A
4:00 PM57 °FBroken clouds.1 mph63%30.01 "HgN/A
3:30 PM57 °FBroken clouds.3 mph67%30.01 "HgN/A
3:00 PM57 °FBroken clouds.3 mph63%30.01 "HgN/A
2:30 PM57 °FBroken clouds.3 mph63%30.04 "HgN/A
2:00 PM57 °FBroken clouds.5 mph63%30.04 "HgN/A
1:30 PM57 °FBroken clouds.6 mph63%30.04 "HgN/A
1:00 PM57 °FBroken clouds.5 mph63%30.04 "HgN/A
Weather by CustomWeather, © 2015

See weather overviewHow to use our weather pages